#timestamp,LO_Frequency,Hit 
1503835215.8,286046997.3,N
1503835235.6,286046996.7,N
1503835255.4,286046999.6,N
1503835275.3,286046998.5,N
1503835295.1,286046998.2,N
1503835315.8,286046996.7,N
1503835335.7,286046997.1,N
1503835355.5,286046999.3,N
1503835375.3,286046996.5,N
1503835395.2,286046997.5,N
1503835415.9,286046997.3,N
1503835435.7,286046996.8,N
1503835455.6,286046999.6,N
1503835475.4,286046999.1,N
1503835495.2,286046998.8,N
1503835515.0,286047001.1,N
1503835515.9,286047001.1,N
1503835535.8,286047000.6,N
1503835555.6,286046998.7,N
1503835575.4,286046999.6,N
1503835595.3,286046999.0,N
1503835615.1,286046998.6,N
1503835635.8,286046999.4,N
1503835655.7,286046996.7,N
1503835675.5,286046997.4,N
1503835695.3,286046996.7,N
1503835715.2,286046999.6,N
1503835735.9,286046999.1,N
1503835755.7,286046997.1,N
1503835775.6,286046996.7,N
1503835795.4,286046999.5,N
1503835815.2,286046997.6,N
1503835835.1,286046995.4,P
1503835836.0,286046995.4,P
1503835855.8,286046995.0,P
1503835875.6,286046995.0,P
1503835895.5,286046998.1,P
1503835915.3,286046998.7,N
1503835935.1,286046996.9,N
1503835955.9,286046998.2,N
1503835975.7,286047001.0,N
1503835995.5,286047000.5,N
1503836015.4,286046999.9,N
1503836035.2,286047001.1,N
1503836055.0,286047001.1,N
1503836055.9,286047001.1,N
1503836075.7,286046998.2,N
1503836095.6,286046998.2,N
1503836115.4,286046998.5,N
1503836135.2,286047000.0,N
1503836155.1,286047000.9,N
1503836156.0,286047000.9,N
1503836175.8,286046998.4,N
1503836195.6,286047000.7,N
1503836215.5,286047000.9,N
1503836235.3,286046998.2,N
1503836255.1,286046998.7,N
1503836275.9,286047001.2,N
1503836295.7,286047001.1,N
1503836315.5,286047001.1,N
1503836335.4,286047001.1,N
1503836355.2,286046998.5,N
1503836375.0,286046998.5,N
1503836375.9,286046998.5,N
1503836395.7,286046998.4,N
1503836415.6,286047001.1,N
1503836435.4,286047000.6,N
1503836455.2,286046998.4,N
1503836475.1,286046999.4,N
1503836476.0,286046999.4,N
1503836495.8,286046998.7,N
1503836515.6,286046998.5,N
1503836535.5,286046998.1,N
1503836555.3,286046998.4,N
1503836575.1,286047002.8,N
1503836595.9,286047000.4,N
1503836615.7,286046999.9,N
1503836635.5,286047000.4,N
1503836655.4,286047002.8,N
1503836675.2,286047000.9,N
1503836695.0,286046998.2,N
1503836695.9,286046998.2,N
1503836715.8,286047000.3,N
1503836735.6,286047001.0,N
1503836755.4,286046998.3,N
1503836775.2,286046997.1,N
1503836795.1,286046994.9,P
1503836796.0,286046994.9,N
1503836815.8,286046998.1,N
1503836835.7,286047000.2,N
1503836855.5,286047004.4,N
1503836875.3,286047001.4,N
1503836895.1,286047001.5,N
1503836915.9,286047001.6,N
1503836935.7,286047003.5,N
1503836955.5,286047001.1,N
1503836975.4,286046998.1,N
1503836995.2,286047002.8,N
1503837015.0,286047000.8,N
1503837015.9,286047000.8,N
1503837035.8,286047002.8,N
1503837055.6,286047003.5,N
1503837075.4,286047004.4,N
1503837095.3,286047003.7,N
1503837115.1,286047003.2,N
1503837116.0,286047003.2,N
1503837135.8,286046999.9,N
1503837155.7,286047004.3,N
1503837175.5,286047003.5,N
1503837195.3,286047002.1,N
1503837215.1,286047001.9,N
1503837235.9,286047003.9,N
1503837255.7,286047003.8,N
1503837275.5,286047003.1,N
1503837295.4,286047004.2,N
1503837315.2,286047002.1,N
1503837335.0,286047000.9,N
1503837335.9,286047000.9,N
1503837355.8,286047002.0,N
1503837375.6,286047002.7,N
1503837395.4,286047003.9,N
1503837415.3,286047001.6,N
1503837435.1,286047001.6,N
1503837436.0,286047001.6,N
1503837455.8,286047003.4,N
1503837475.7,286047002.2,N
1503837495.5,286047001.9,N
1503837515.3,286047004.2,P
1503837535.2,286047000.8,N
1503837555.9,286047000.6,N
1503837575.7,286046999.7,N
1503837595.6,286047003.5,N
1503837615.4,286047002.4,N
1503837635.2,286046999.7,N
1503837655.0,286047001.5,N
1503837656.0,286047001.5,N
1503837675.8,286047002.5,N
1503837695.6,286047001.8,N
1503837715.4,286047002.3,N
1503837735.3,286047002.7,N
1503837755.1,286047002.4,N
1503837775.8,286047002.2,N
1503837795.7,286047002.8,N
1503837815.5,286047000.9,N
1503837835.3,286047000.4,N
1503837855.2,286047004.0,P
1503837875.9,286047001.0,N
1503837895.7,286047000.8,N
1503837915.6,286047000.6,N
1503837935.4,286047000.1,N
1503837955.2,286047001.5,N
1503837975.1,286047007.4,P
1503837976.0,286047007.4,N
1503837995.8,286047006.6,N
1503838015.6,286047006.5,N
1503838035.5,286047006.8,N
1503838055.3,286047002.9,N
1503838075.1,286047005.6,N
1503838095.9,286047002.9,N
1503838115.7,286047007.5,P
1503838135.5,286047004.3,P
1503838155.4,286047002.3,N
1503838175.2,286047002.4,N
1503838195.0,286046998.3,N
1503838195.9,286046998.3,N
1503838215.8,286046999.5,N
1503838235.6,286046996.1,N
1503838255.4,286046993.6,N
1503838275.2,286046995.9,N
1503838295.1,286046996.5,N
1503838296.0,286046996.5,N
1503838315.8,286046995.8,N
1503838335.6,286046996.0,N
1503838355.5,286046991.9,N
1503838375.3,286046997.6,N
1503838395.1,286046995.4,N
1503838415.9,286046994.9,N
1503838435.7,286046996.1,N
1503838455.5,286046997.3,N
1503838475.4,286046995.2,N
1503838495.2,286046993.6,N
1503838515.0,286046997.3,N
1503838515.9,286046997.3,N
1503838535.8,286046993.7,N
1503838555.6,286046996.4,N
1503838575.4,286046996.0,N
1503838595.2,286046995.7,N
1503838615.1,286046994.0,N
1503838616.0,286046994.0,N
1503838635.8,286046993.6,N
1503838655.4,286046994.8,N
1503838675.2,286046992.4,P
1503838695.0,286046998.0,N
1503838695.9,286046998.0,N
1503838715.8,286046995.4,N
1503838735.6,286046993.8,P
1503838755.4,286047000.8,N
1503838775.3,286047000.6,N
1503838795.1,286046998.5,N
1503838796.0,286046998.5,N
